星链-2317 (STARLINK-2317 )

导读 | 豆包AI

STARLINK-2317是美国太空探索技术公司(SpaceX)星链卫星互联网星座的组成部分,于2021年3月24日发射升空。星链项目计划在近地轨道部署数千颗卫星,旨在为全球提供高速、低延迟的宽带互联网服务,尤其聚焦改善偏远地区的网络覆盖,单颗卫星寿命约5至7年,退役后会主动离轨在大气层焚毁,减少太空垃圾影响。

Basic Information
目录编号:
47982
目录名称:
STARLINK-2317
国际标识:
2021-024F
轨道中心:
EARTH
卫星名称:
星链-2317
卫星全名:
星链-2317 (STARLINK-2317 )
卫星状态:
已陨落 最后检测时间 2025-01-31
发射日期:
2021-03-24 UTC
国别 :
美国 (US)
星等 :
--
Orbit Information
数据来源 国际轨道数据
星历时间: 2025-01-31T15:47:31+0800
轨道信息已过期407天
半长轴: 6530.575km
偏心率: 0.000722
轨道倾角: 53.019°
近地点辐角 264.276°
升交点赤经 237.966°
平近点角 251.589°
近地点: 147.724km
远地点: 157.156km
周期: 87.536分钟
每日圈数: 16.450371
Detailed Information
固有亮度:
5
最大亮度:
2.5
卫星平台:
Starlink V1.0
覆盖范围:
全球
运营商:
太空探索技术公司
运营商所在国:
美国
制造商(研发单位):
太空探索技术公司
制造商所在国:
美国
使用方式:
暂无
Satellite Introduction
星链(Starlink)计划是由太空探索技术公司(SpaceX)提出的一个巨型低轨卫星互联网星座项目,计划在2019年至2024年间在太空搭建由约1.2万颗卫星组成的“星链”网络,其中1584颗将部署在地球上空550千米处的近地轨道,并从2020年开始工作。该卫星仍在工作。